Regional Weather Roundup
Issued by NWS

Home | Current Version | Previous Version | Text Only | Print | Product List | Glossary Off
Versions: 1 2 3 4 5 6 7 8 9 10 11 12 13 14 15 16 17 18 19 20 21 22 23 24 25 26 27 28 29 30 31 32 33 34 35 36 37 38 39 40 41 42 43 44 45 46 47 48 49 50

000
ASUS43 KLMK 282202
RWRKY
KENTUCKY REGIONAL WEATHER ROUNDUP
NATIONAL WEATHER SERVICE LOUISVILLE KY
600 PM EDT SAT MAR 28 2015

NOTE "FAIR" INDICATES FEW OR NO CLOUDS BELOW 12,000 FEET
WITH NO SIGNIFICANT WEATHER AND/OR OBSTRUCTIONS TO VISIBILITY.

KYZ001>023-026-027-061>063-070>075-282300-
WESTERN AND SOUTH CENTRAL KENTUCKY

CITY           SKY/WX    TMP DP  RH WIND       PRES   REMARKS
PADUCAH        SUNNY     47  16  29 CALM      30.26F
HENDERSON      SUNNY     41  19  42 CALM      30.29S
OWENSBORO      SUNNY     41  15  35 VRB6      30.30S
HOPKINSVILLE   SUNNY     44  15  31 VRB6      30.26S
BOWLING GREEN  SUNNY     45  11  25 CALM      30.26S
GLASGOW        NOT AVBL
$$

KYZ024-025-028>034-038-045-046-053-282300-
NORTH CENTRAL KENTUCKY

CITY           SKY/WX    TMP DP  RH WIND       PRES   REMARKS
LOUISVILLE/SDF MOSUNNY   43  13  29 N6        30.28S
LOUISVILLE/LOU SUNNY     42  12  29 N7        30.28S
FORT KNOX      SUNNY     41  13  31 VRB5      30.25R
$$

KYZ035>037-039>044-047>052-055>060-089>105-282300-
NORTHEAST KENTUCKY

CITY           SKY/WX    TMP DP  RH WIND       PRES   REMARKS
LEXINGTON      SUNNY     38  12  34 VRB5      30.25S WCI  34
COVINGTON      SUNNY     37  11  34 N10       30.27R WCI  30
FRANKFORT      SUNNY     40  10  29 W7        30.25S
$$

KYZ054-064>069-076>088-106>120-282300-
SOUTHEAST KENTUCKY

CITY           SKY/WX    TMP DP  RH WIND       PRES   REMARKS
JACKSON        SUNNY     38  10  31 VRB5      30.21R WCI  34
LONDON         SUNNY     41   9  26 N10       30.22R
SOMERSET       NOT AVBL
MIDDLESBORO    NOT AVBL
MONTICELLO     CLEAR     43  14  31 NW9       30.26R
$$



USA.gov is the U.S. government's official web portal to all federal, state and local government web resources and services.